Zurück zum Katalog

CZ-4 DEB

AktivPO
NORAD 26209·DEBRIS·🇨🇳 China

Gestartet Oct 14, 1999 von Taiyuan Satellite Launch Center

Loading…

Nächste Überflüge (nächste 24 Stunden)

TLE

AktuellSource: Space-Track

Epoche: Sep 13, 2026, 10:35 UTC

1 26209U 99057CX  26256.44165421  .00000590  00000-0  11674-3 0  9993
2 26209  98.6555  71.3194 0028072 170.1858 219.7577 14.66158507410267

Verfolge CZ-4 DEB in Echtzeit mit AllMySat

Download on the App Store